Time,TemperatureF,DewpointF,PressureIn,WindDirection,WindDirectionDegrees,WindSpeedMPH,WindSpeedGustMPH,Humidity,HourlyPrecipIn,Conditions,Clouds,dailyrainin,SoftwareType,DateUTC
2013-06-01 00:08:00,62.9,35.0,29.92,West,273,0.0,1.0,36,0.00,,,0.00,weatherlink.com 1.10,2013-06-01 08:08:00,
2013-06-01 00:23:00,61.5,35.0,29.92,NNE,29,0.0,0.0,38,0.00,,,0.00,weatherlink.com 1.10,2013-06-01 08:23:00,
2013-06-01 00:38:00,60.1,35.0,29.93,NE,47,0.0,0.0,39,0.00,,,0.00,weatherlink.com 1.10,2013-06-01 08:38:00,
2013-06-01 00:54:00,60.5,34.0,29.93,NNW,331,0.0,1.0,37,0.00,,,0.00,weatherlink.com 1.10,2013-06-01 08:54:00,
2013-06-01 01:09:00,60.9,35.0,29.93,NNW,335,0.0,1.0,38,0.00,,,0.00,weatherlink.com 1.10,2013-06-01 09:09:00,
2013-06-01 01:24:00,61.8,32.0,29.94,NNW,333,1.0,2.0,33,0.00,,,0.00,weatherlink.com 1.10,2013-06-01 09:24:00,
2013-06-01 01:39:00,63.0,33.0,29.94,NNW,348,0.0,2.0,32,0.00,,,0.00,weatherlink.com 1.10,2013-06-01 09:39:00,
2013-06-01 01:54:00,63.2,32.0,29.94,NNW,328,0.0,1.0,31,0.00,,,0.00,weatherlink.com 1.10,2013-06-01 09:54:00,
2013-06-01 02:09:00,63.5,31.0,29.94,North,350,0.0,2.0,29,0.00,,,0.00,weatherlink.com 1.10,2013-06-01 10:09:00,
2013-06-01 02:24:00,63.7,30.0,29.94,North,352,1.0,4.0,28,0.00,,,0.00,weatherlink.com 1.10,2013-06-01 10:24:00,
2013-06-01 02:39:00,63.3,29.0,29.95,NE,42,1.0,5.0,27,0.00,,,0.00,weatherlink.com 1.10,2013-06-01 10:39:00,
2013-06-01 02:54:00,63.0,28.0,29.95,NNW,335,1.0,2.0,27,0.00,,,0.00,weatherlink.com 1.10,2013-06-01 10:54:00,
2013-06-01 03:09:00,62.7,29.0,29.95,WNW,283,0.0,2.0,28,0.00,,,0.00,weatherlink.com 1.10,2013-06-01 11:09:00,
2013-06-01 03:24:00,61.1,29.0,29.95,NNW,335,1.0,3.0,30,0.00,,,0.00,weatherlink.com 1.10,2013-06-01 11:24:00,
2013-06-01 03:39:00,61.4,30.0,29.95,WSW,257,1.0,3.0,30,0.00,,,0.00,weatherlink.com 1.10,2013-06-01 11:39:00,
2013-06-01 03:54:00,60.8,30.0,29.96,NNW,328,1.0,2.0,31,0.00,,,0.00,weatherlink.com 1.10,2013-06-01 11:54:00,
2013-06-01 04:09:00,61.2,29.0,29.96,NNW,345,0.0,1.0,30,0.00,,,0.00,weatherlink.com 1.10,2013-06-01 12:09:00,
2013-06-01 04:24:00,60.3,29.0,29.97,West,278,1.0,1.0,31,0.00,,,0.00,weatherlink.com 1.10,2013-06-01 12:24:00,
2013-06-01 04:39:00,58.4,30.0,29.97,West,280,0.0,1.0,34,0.00,,,0.00,weatherlink.com 1.10,2013-06-01 12:39:00,
2013-06-01 04:54:00,59.0,31.0,29.97,West,280,0.0,0.0,35,0.00,,,0.00,weatherlink.com 1.10,2013-06-01 12:54:00,
2013-06-01 05:09:00,59.9,31.0,29.97,West,280,0.0,0.0,33,0.00,,,0.00,weatherlink.com 1.10,2013-06-01 13:09:00,
2013-06-01 05:24:00,60.8,31.0,29.97,West,280,0.0,0.0,33,0.00,,,0.00,weatherlink.com 1.10,2013-06-01 13:24:00,
2013-06-01 05:39:00,61.5,31.0,29.98,West,279,0.0,0.0,32,0.00,,,0.00,weatherlink.com 1.10,2013-06-01 13:39:00,
2013-06-01 05:54:00,62.2,31.0,29.98,West,277,0.0,1.0,31,0.00,,,0.00,weatherlink.com 1.10,2013-06-01 13:54:00,
2013-06-01 06:09:00,62.6,32.0,29.98,West,260,0.0,1.0,32,0.00,,,0.00,weatherlink.com 1.10,2013-06-01 14:09:00,
2013-06-01 06:24:00,61.7,31.0,29.98,West,260,0.0,0.0,32,0.00,,,0.00,weatherlink.com 1.10,2013-06-01 14:24:00,
2013-06-01 06:39:00,62.7,31.0,29.98,WSW,255,0.0,1.0,31,0.00,,,0.00,weatherlink.com 1.10,2013-06-01 14:39:00,
2013-06-01 06:54:00,64.1,38.0,29.98,SSE,152,0.0,0.0,38,0.00,,,0.00,weatherlink.com 1.10,2013-06-01 14:54:00,
2013-06-01 07:09:00,63.9,37.0,29.98,ESE,108,1.0,2.0,37,0.00,,,0.00,weatherlink.com 1.10,2013-06-01 15:09:00,
2013-06-01 07:24:00,65.2,35.0,29.99,ESE,115,1.0,1.0,33,0.00,,,0.00,weatherlink.com 1.10,2013-06-01 15:24:00,
2013-06-01 07:39:00,66.4,35.0,29.99,ESE,117,0.0,1.0,31,0.00,,,0.00,weatherlink.com 1.10,2013-06-01 15:39:00,
2013-06-01 07:54:00,68.1,34.0,29.99,SW,233,0.0,0.0,28,0.00,,,0.00,weatherlink.com 1.10,2013-06-01 15:54:00,
2013-06-01 08:09:00,67.2,34.0,30.00,SW,233,0.0,0.0,29,0.00,,,0.00,weatherlink.com 1.10,2013-06-01 16:09:00,
2013-06-01 08:25:00,66.6,34.0,30.00,West,259,1.0,2.0,30,0.00,,,0.00,weatherlink.com 1.10,2013-06-01 16:25:00,
2013-06-01 08:40:00,66.6,35.0,30.00,NW,306,0.0,0.0,31,0.00,,,0.00,weatherlink.com 1.10,2013-06-01 16:40:00,
2013-06-01 08:55:00,68.2,36.0,30.01,NE,53,1.0,2.0,30,0.00,,,0.00,weatherlink.com 1.10,2013-06-01 16:55:00,
2013-06-01 09:10:00,68.9,35.0,30.01,NNE,18,0.0,2.0,29,0.00,,,0.00,weatherlink.com 1.10,2013-06-01 17:10:00,
2013-06-01 09:25:00,69.0,35.0,30.01,East,85,2.0,3.0,29,0.00,,,0.00,weatherlink.com 1.10,2013-06-01 17:25:00,
2013-06-01 09:40:00,69.1,36.0,30.02,ENE,77,2.0,4.0,30,0.00,,,0.00,weatherlink.com 1.10,2013-06-01 17:40:00,
2013-06-01 09:55:00,69.2,36.0,30.02,NNW,336,1.0,5.0,30,0.00,,,0.00,weatherlink.com 1.10,2013-06-01 17:55:00,
2013-06-01 10:10:00,69.8,37.0,30.02,North,5,2.0,5.0,30,0.00,,,0.00,weatherlink.com 1.10,2013-06-01 18:10:00,
2013-06-01 10:25:00,70.4,37.0,30.02,NNW,338,0.0,6.0,29,0.00,,,0.00,weatherlink.com 1.10,2013-06-01 18:25:00,
2013-06-01 10:40:00,71.0,39.0,30.02,NNW,342,1.0,5.0,31,0.00,,,0.00,weatherlink.com 1.10,2013-06-01 18:40:00,
2013-06-01 10:55:00,71.4,38.0,30.02,NE,53,1.0,5.0,30,0.00,,,0.00,weatherlink.com 1.10,2013-06-01 18:55:00,
2013-06-01 11:10:00,72.5,38.0,30.03,NE,56,0.0,4.0,28,0.00,,,0.00,weatherlink.com 1.10,2013-06-01 19:10:00,
2013-06-01 11:25:00,72.3,38.0,30.02,WSW,257,0.0,5.0,29,0.00,,,0.00,weatherlink.com 1.10,2013-06-01 19:25:00,
2013-06-01 11:40:00,72.9,40.0,30.02,East,95,1.0,5.0,30,0.00,,,0.00,weatherlink.com 1.10,2013-06-01 19:40:00,
2013-06-01 11:55:00,72.7,38.0,30.02,WNW,295,1.0,5.0,28,0.00,,,0.00,weatherlink.com 1.10,2013-06-01 19:55:00,
2013-06-01 12:10:00,72.5,38.0,30.02,West,277,3.0,7.0,29,0.00,,,0.00,weatherlink.com 1.10,2013-06-01 20:10:00,
2013-06-01 12:25:00,73.6,38.0,30.01,ESE,114,0.0,4.0,28,0.00,,,0.00,weatherlink.com 1.10,2013-06-01 20:25:00,
2013-06-01 12:40:00,73.4,39.0,30.01,ENE,63,2.0,5.0,29,0.00,,,0.00,weatherlink.com 1.10,2013-06-01 20:40:00,
2013-06-01 12:55:00,73.7,39.0,30.02,North,349,1.0,6.0,28,0.00,,,0.00,weatherlink.com 1.10,2013-06-01 20:55:00,
2013-06-01 13:10:00,72.8,38.0,30.02,NW,309,2.0,8.0,28,0.00,,,0.00,weatherlink.com 1.10,2013-06-01 21:10:00,
2013-06-01 13:25:00,73.4,38.0,30.01,WSW,250,4.0,5.0,28,0.00,,,0.00,weatherlink.com 1.10,2013-06-01 21:25:00,
2013-06-01 13:40:00,74.8,40.0,30.01,East,93,2.0,7.0,28,0.00,,,0.00,weatherlink.com 1.10,2013-06-01 21:40:00,
2013-06-01 13:55:00,74.4,37.0,30.01,NE,46,3.0,5.0,26,0.00,,,0.00,weatherlink.com 1.10,2013-06-01 21:55:00,
2013-06-01 14:10:00,75.8,38.0,30.01,NW,320,1.0,3.0,26,0.00,,,0.00,weatherlink.com 1.10,2013-06-01 22:10:00,
2013-06-01 14:25:00,75.0,41.0,30.01,ENE,58,2.0,10.0,29,0.00,,,0.00,weatherlink.com 1.10,2013-06-01 22:25:00,
2013-06-01 14:40:00,74.2,41.0,30.00,NNW,328,2.0,6.0,30,0.00,,,0.00,weatherlink.com 1.10,2013-06-01 22:40:00,
2013-06-01 14:55:00,74.4,40.0,30.01,West,259,1.0,4.0,29,0.00,,,0.00,weatherlink.com 1.10,2013-06-01 22:55:00,
2013-06-01 15:10:00,75.7,39.0,30.00,WNW,298,3.0,7.0,27,0.00,,,0.00,weatherlink.com 1.10,2013-06-01 23:10:00,
2013-06-01 15:25:00,76.9,41.0,30.00,NW,304,1.0,7.0,28,0.00,,,0.00,weatherlink.com 1.10,2013-06-01 23:25:00,
2013-06-01 15:40:00,73.7,41.0,30.00,North,9,2.0,7.0,31,0.00,,,0.00,weatherlink.com 1.10,2013-06-01 23:40:00,
2013-06-01 15:55:00,75.0,41.0,30.00,NNW,328,3.0,4.0,29,0.00,,,0.00,weatherlink.com 1.10,2013-06-01 23:55:00,
2013-06-01 16:10:00,72.5,39.0,30.00,NE,53,4.0,13.0,30,0.00,,,0.00,weatherlink.com 1.10,2013-06-02 00:10:00,
2013-06-01 16:25:00,73.3,40.0,30.00,ENE,74,4.0,9.0,30,0.00,,,0.00,weatherlink.com 1.10,2013-06-02 00:25:00,
2013-06-01 16:40:00,72.8,40.0,30.00,NE,54,2.0,11.0,30,0.00,,,0.00,weatherlink.com 1.10,2013-06-02 00:40:00,
2013-06-01 16:55:00,73.4,38.0,29.99,NE,52,5.0,9.0,28,0.00,,,0.00,weatherlink.com 1.10,2013-06-02 00:55:00,
2013-06-01 17:10:00,73.1,39.0,30.00,ENE,65,3.0,8.0,29,0.00,,,0.00,weatherlink.com 1.10,2013-06-02 01:10:00,
2013-06-01 17:25:00,72.5,38.0,29.99,North,4,2.0,10.0,29,0.00,,,0.00,weatherlink.com 1.10,2013-06-02 01:25:00,
2013-06-01 17:40:00,73.3,37.0,29.99,NE,56,9.0,9.0,27,0.00,,,0.00,weatherlink.com 1.10,2013-06-02 01:40:00,
2013-06-01 17:55:00,73.1,36.0,29.99,NE,46,2.0,10.0,26,0.00,,,0.00,weatherlink.com 1.10,2013-06-02 01:55:00,
2013-06-01 18:10:00,72.8,38.0,29.99,NE,51,2.0,9.0,28,0.00,,,0.00,weatherlink.com 1.10,2013-06-02 02:10:00,
2013-06-01 18:25:00,72.6,37.0,29.99,NE,54,5.0,7.0,27,0.00,,,0.00,weatherlink.com 1.10,2013-06-02 02:25:00,
2013-06-01 18:40:00,72.5,37.0,29.99,ENE,67,2.0,11.0,27,0.00,,,0.00,weatherlink.com 1.10,2013-06-02 02:40:00,
2013-06-01 18:55:00,72.6,38.0,29.99,East,81,3.0,6.0,28,0.00,,,0.00,weatherlink.com 1.10,2013-06-02 02:55:00,
2013-06-01 19:10:00,72.1,36.0,29.99,NE,39,6.0,11.0,27,0.00,,,0.00,weatherlink.com 1.10,2013-06-02 03:10:00,
2013-06-01 19:25:00,71.4,36.0,29.99,NE,44,7.0,11.0,27,0.00,,,0.00,weatherlink.com 1.10,2013-06-02 03:25:00,
2013-06-01 19:40:00,71.1,35.0,29.99,ENE,58,6.0,9.0,27,0.00,,,0.00,weatherlink.com 1.10,2013-06-02 03:40:00,
2013-06-01 19:55:00,70.3,36.0,29.99,NE,56,9.0,11.0,28,0.00,,,0.00,weatherlink.com 1.10,2013-06-02 03:55:00,
2013-06-01 20:10:00,70.0,35.0,29.99,NE,49,8.0,12.0,28,0.00,,,0.00,weatherlink.com 1.10,2013-06-02 04:10:00,
2013-06-01 20:25:00,69.4,36.0,29.99,NE,53,4.0,11.0,29,0.00,,,0.00,weatherlink.com 1.10,2013-06-02 04:25:00,
2013-06-01 20:40:00,69.2,36.0,29.99,NE,52,6.0,10.0,29,0.00,,,0.00,weatherlink.com 1.10,2013-06-02 04:40:00,
2013-06-01 20:55:00,68.4,36.0,29.99,NE,54,12.0,13.0,30,0.00,,,0.00,weatherlink.com 1.10,2013-06-02 04:55:00,
2013-06-01 21:10:00,67.5,36.0,30.00,ENE,65,4.0,10.0,31,0.00,,,0.00,weatherlink.com 1.10,2013-06-02 05:10:00,
2013-06-01 21:26:00,67.3,36.0,30.00,North,359,2.0,10.0,31,0.00,,,0.00,weatherlink.com 1.10,2013-06-02 05:26:00,
2013-06-01 21:41:00,66.5,36.0,30.00,NE,53,5.0,10.0,33,0.00,,,0.00,weatherlink.com 1.10,2013-06-02 05:41:00,
2013-06-01 21:56:00,65.6,37.0,30.00,ENE,67,7.0,10.0,35,0.00,,,0.00,weatherlink.com 1.10,2013-06-02 05:56:00,
2013-06-01 22:11:00,64.9,37.0,30.01,NE,53,5.0,10.0,36,0.00,,,0.00,weatherlink.com 1.10,2013-06-02 06:11:00,
2013-06-01 22:26:00,64.0,37.0,30.00,NE,50,6.0,10.0,37,0.00,,,0.00,weatherlink.com 1.10,2013-06-02 06:26:00,
2013-06-01 22:41:00,63.4,37.0,30.01,NE,53,8.0,10.0,38,0.00,,,0.00,weatherlink.com 1.10,2013-06-02 06:41:00,
2013-06-01 22:56:00,62.7,38.0,30.01,NE,42,3.0,9.0,40,0.00,,,0.00,weatherlink.com 1.10,2013-06-02 06:56:00,
2013-06-01 23:11:00,62.1,38.0,30.01,NE,56,4.0,11.0,41,0.00,,,0.00,weatherlink.com 1.10,2013-06-02 07:11:00,
2013-06-01 23:26:00,61.5,38.0,30.01,NE,41,5.0,10.0,42,0.00,,,0.00,weatherlink.com 1.10,2013-06-02 07:26:00,
2013-06-01 23:41:00,61.0,38.0,30.01,NE,51,4.0,10.0,43,0.00,,,0.00,weatherlink.com 1.10,2013-06-02 07:41:00,
2013-06-01 23:56:00,60.7,38.0,30.01,NE,47,4.0,12.0,44,0.00,,,0.00,weatherlink.com 1.10,2013-06-02 07:56:00,